RYR221 EDDK-EDDF

Flight info

Callsign RYR221
Flight time 0h 32m
Altitude 15000
Route COL8K COL T911 ROLIS ROLIS5D
Aircraft B738/M-SDE2E3FGHIRWXY/LB1

Departure

Time 2026-05-05 01:01
Airport Cologne Bonn Airport (EDDK)

Arrival

Time 2026-05-05 01:34
Airport Frankfurt Main Airport (EDDF)
Time Latitude Longitude Altitude Speed Heading
2026-05-05 00:03 50.88195 7.11900 239 ft 0 kts 218°
2026-05-05 00:46 50.88204 7.11911 229 ft 4 kts 214°
2026-05-05 00:46 50.88226 7.11935 232 ft 4 kts 202°
2026-05-05 00:47 50.88248 7.11937 231 ft 4 kts 146°
2026-05-05 00:47 50.88261 7.11919 232 ft 0 kts 126°
2026-05-05 00:54 50.88254 7.11933 232 ft 7 kts 127°
2026-05-05 00:55 50.88200 7.12051 229 ft 16 kts 126°
2026-05-05 00:55 50.88150 7.12157 230 ft 6 kts 123°
2026-05-05 00:55 50.88120 7.12225 230 ft 10 kts 126°
2026-05-05 00:55 50.88086 7.12346 231 ft 15 kts 120°
2026-05-05 00:56 50.87997 7.12500 229 ft 22 kts 137°
2026-05-05 00:56 50.87872 7.12605 237 ft 21 kts 195°
2026-05-05 00:56 50.87733 7.12531 238 ft 21 kts 196°
2026-05-05 00:56 50.87597 7.12463 239 ft 20 kts 198°
2026-05-05 00:57 50.87465 7.12398 239 ft 20 kts 198°
2026-05-05 00:57 50.87324 7.12324 237 ft 23 kts 199°
2026-05-05 00:57 50.87177 7.12249 241 ft 22 kts 201°
2026-05-05 00:57 50.87063 7.12095 243 ft 21 kts 217°
2026-05-05 00:58 50.86923 7.12052 238 ft 21 kts 170°
2026-05-05 00:58 50.86781 7.12113 238 ft 21 kts 166°
2026-05-05 00:58 50.86638 7.12171 238 ft 22 kts 163°
2026-05-05 00:58 50.86491 7.12232 241 ft 21 kts 166°
2026-05-05 00:59 50.86341 7.12293 238 ft 23 kts 165°
2026-05-05 00:59 50.86188 7.12343 244 ft 22 kts 168°
2026-05-05 00:59 50.86044 7.12420 250 ft 17 kts 129°
2026-05-05 00:59 50.86057 7.12525 251 ft 1 kts 65°
2026-05-05 01:00 50.86065 7.12553 251 ft 18 kts 65°
2026-05-05 01:00 50.86234 7.13110 250 ft 92 kts 64°
2026-05-05 01:01 50.86605 7.14329 265 ft 152 kts 65°
2026-05-05 01:01 50.87088 7.15982 721 ft 169 kts 65°
2026-05-05 01:01 50.87585 7.17626 1670 ft 161 kts 65°
2026-05-05 01:01 50.88056 7.19215 2378 ft 162 kts 66°
2026-05-05 01:02 50.88559 7.20925 2628 ft 184 kts 66°
2026-05-05 01:02 50.89129 7.22869 2876 ft 207 kts 66°
2026-05-05 01:02 50.89763 7.25036 3050 ft 225 kts 66°
2026-05-05 01:02 50.90308 7.27438 3191 ft 241 kts 85°
2026-05-05 01:03 50.89939 7.30009 3453 ft 248 kts 121°
2026-05-05 01:03 50.89006 7.32417 3701 ft 262 kts 124°
2026-05-05 01:03 50.88025 7.34868 4323 ft 265 kts 124°
2026-05-05 01:03 50.87042 7.37335 5092 ft 264 kts 125°
2026-05-05 01:04 50.86064 7.39808 5761 ft 267 kts 125°
2026-05-05 01:04 50.84086 7.44847 7107 ft 272 kts 126°
2026-05-05 01:04 50.83102 7.47364 7801 ft 274 kts 126°
2026-05-05 01:05 50.82095 7.49944 8476 ft 277 kts 126°
2026-05-05 01:05 50.81075 7.52554 9159 ft 281 kts 126°
2026-05-05 01:05 50.80036 7.55208 9741 ft 288 kts 126°
2026-05-05 01:05 50.78961 7.57915 10309 ft 294 kts 130°
2026-05-05 01:06 50.77424 7.60105 10459 ft 306 kts 156°
2026-05-05 01:06 50.75428 7.61520 10642 ft 325 kts 160°
2026-05-05 01:06 50.73281 7.62919 10783 ft 344 kts 161°
2026-05-05 01:06 50.71013 7.64381 11106 ft 356 kts 160°
2026-05-05 01:07 50.68702 7.65882 11651 ft 361 kts 160°
2026-05-05 01:07 50.66373 7.67408 12308 ft 364 kts 160°
2026-05-05 01:07 50.64023 7.68956 12892 ft 368 kts 160°
2026-05-05 01:07 50.61643 7.70528 12984 ft 378 kts 160°
2026-05-05 01:08 50.59174 7.72158 12995 ft 391 kts 160°
2026-05-05 01:08 50.56651 7.73827 12986 ft 392 kts 160°
2026-05-05 01:08 50.54147 7.75484 12979 ft 390 kts 160°
2026-05-05 01:08 50.51696 7.77107 12972 ft 373 kts 160°
2026-05-05 01:09 50.49351 7.78656 12968 ft 359 kts 160°
2026-05-05 01:09 50.47065 7.80161 12660 ft 352 kts 160°
2026-05-05 01:09 50.44835 7.81626 12270 ft 346 kts 160°
2026-05-05 01:09 50.42686 7.83310 11820 ft 346 kts 148°
2026-05-05 01:10 50.40794 7.85625 11412 ft 343 kts 144°
2026-05-05 01:10 50.38982 7.87969 10965 ft 341 kts 144°
2026-05-05 01:10 50.37187 7.90276 10829 ft 328 kts 144°
2026-05-05 01:10 50.35437 7.92494 10675 ft 319 kts 144°
2026-05-05 01:11 50.33736 7.94626 10540 ft 309 kts 145°
2026-05-05 01:11 50.32075 7.96690 10397 ft 300 kts 145°
2026-05-05 01:11 50.30457 7.98694 10277 ft 292 kts 146°
2026-05-05 01:11 50.28892 8.00628 10154 ft 283 kts 146°
2026-05-05 01:12 50.27372 8.02518 10031 ft 276 kts 143°
2026-05-05 01:12 50.26229 8.04899 9920 ft 276 kts 118°
2026-05-05 01:12 50.25621 8.07729 9852 ft 276 kts 109°
2026-05-05 01:12 50.25159 8.10650 9762 ft 279 kts 108°
2026-05-05 01:13 50.24715 8.13595 9664 ft 283 kts 108°
2026-05-05 01:13 50.24258 8.16596 9569 ft 284 kts 108°
2026-05-05 01:13 50.23794 8.19584 9448 ft 282 kts 108°
2026-05-05 01:13 50.23324 8.22555 9361 ft 280 kts 108°
2026-05-05 01:14 50.22853 8.25500 9262 ft 279 kts 108°
2026-05-05 01:14 50.22380 8.28432 9158 ft 278 kts 108°
2026-05-05 01:14 50.21905 8.31352 9078 ft 277 kts 108°
2026-05-05 01:14 50.21431 8.34261 8971 ft 275 kts 108°
2026-05-05 01:15 50.20878 8.37093 8864 ft 271 kts 121°
2026-05-05 01:15 50.19665 8.39241 8802 ft 261 kts 149°
2026-05-05 01:15 50.18055 8.40475 8732 ft 257 kts 162°
2026-05-05 01:15 50.16366 8.41417 8642 ft 258 kts 163°
2026-05-05 01:16 50.14667 8.42343 8545 ft 259 kts 166°
2026-05-05 01:16 50.12897 8.42492 8433 ft 255 kts 194°
2026-05-05 01:16 50.11308 8.41338 8377 ft 254 kts 217°
2026-05-05 01:16 50.10127 8.39303 8287 ft 256 kts 239°
2026-05-05 01:17 50.09413 8.36751 8217 ft 258 kts 247°
2026-05-05 01:17 50.08783 8.34116 8121 ft 261 kts 248°
2026-05-05 01:17 50.08157 8.31462 8032 ft 262 kts 248°
2026-05-05 01:17 50.07533 8.28837 7944 ft 263 kts 247°
2026-05-05 01:18 50.06886 8.26134 7843 ft 263 kts 247°
2026-05-05 01:18 50.06253 8.23507 7769 ft 263 kts 247°
2026-05-05 01:18 50.05611 8.20856 7680 ft 260 kts 246°
2026-05-05 01:18 50.04978 8.18248 7585 ft 256 kts 246°
2026-05-05 01:19 50.04351 8.15676 7491 ft 252 kts 246°
2026-05-05 01:19 50.03731 8.13139 7412 ft 251 kts 246°
2026-05-05 01:19 50.03112 8.10611 7337 ft 249 kts 246°
2026-05-05 01:19 50.02496 8.08087 7260 ft 250 kts 246°
2026-05-05 01:20 50.01875 8.05544 7173 ft 253 kts 246°
2026-05-05 01:20 50.01248 8.02975 7100 ft 254 kts 246°
2026-05-05 01:20 50.00619 8.00405 7008 ft 254 kts 246°
2026-05-05 01:20 49.99995 7.97852 6923 ft 253 kts 246°
2026-05-05 01:21 49.99369 7.95298 6841 ft 252 kts 246°
2026-05-05 01:21 49.98746 7.92761 6770 ft 252 kts 248°
2026-05-05 01:21 49.98119 7.90207 6697 ft 253 kts 247°
2026-05-05 01:21 49.97492 7.87659 6607 ft 254 kts 247°
2026-05-05 01:22 49.97074 7.85961 6526 ft 254 kts 247°
2026-05-05 01:22 49.96443 7.83403 6437 ft 252 kts 247°
2026-05-05 01:22 49.95811 7.80863 6362 ft 251 kts 245°
2026-05-05 01:22 49.95126 7.78370 6283 ft 250 kts 244°
2026-05-05 01:23 49.94427 7.75922 6274 ft 246 kts 243°
2026-05-05 01:23 49.93493 7.73733 6270 ft 244 kts 222°
2026-05-05 01:23 49.92043 7.72411 6263 ft 246 kts 194°
2026-05-05 01:23 49.90334 7.72419 6254 ft 251 kts 166°
2026-05-05 01:24 49.88716 7.73469 6204 ft 253 kts 156°
2026-05-05 01:24 49.87138 7.74689 6174 ft 253 kts 155°
2026-05-05 01:24 49.85562 7.75923 6145 ft 254 kts 155°
2026-05-05 01:24 49.83989 7.77160 6119 ft 254 kts 155°
2026-05-05 01:25 49.82566 7.78783 6003 ft 259 kts 131°
2026-05-05 01:25 49.81745 7.81276 5983 ft 263 kts 108°
2026-05-05 01:25 49.81740 7.84117 5896 ft 271 kts 73°
2026-05-05 01:25 49.82779 7.86518 5851 ft 273 kts 38°
2026-05-05 01:26 49.84493 7.87619 5859 ft 269 kts
2026-05-05 01:26 49.86343 7.87607 5866 ft 271 kts 356°
2026-05-05 01:26 49.88245 7.87633 5769 ft 276 kts 11°
2026-05-05 01:26 49.89892 7.89026 5757 ft 271 kts 50°
2026-05-05 01:27 49.90683 7.91596 5687 ft 266 kts 85°
2026-05-05 01:27 49.90849 7.94446 5647 ft 266 kts 84°
2026-05-05 01:27 49.91232 7.97178 5850 ft 250 kts 75°
2026-05-05 01:27 49.91848 7.99618 5817 ft 244 kts 66°
2026-05-05 01:28 49.92635 8.02008 5446 ft 250 kts 72°
2026-05-05 01:28 49.93091 8.04547 5362 ft 240 kts 77°
2026-05-05 01:28 49.93565 8.06991 5254 ft 234 kts 75°
2026-05-05 01:28 49.94058 8.09382 5182 ft 232 kts 73°
2026-05-05 01:29 49.94588 8.11759 5111 ft 233 kts 72°
2026-05-05 01:29 49.95142 8.14134 5049 ft 235 kts 72°
2026-05-05 01:29 49.95711 8.16525 4941 ft 239 kts 72°
2026-05-05 01:29 49.96303 8.18999 4590 ft 247 kts 71°
2026-05-05 01:30 49.96909 8.21510 4265 ft 247 kts 71°
2026-05-05 01:30 49.97495 8.23928 4017 ft 234 kts 70°
2026-05-05 01:30 49.98041 8.26181 3964 ft 213 kts 70°
2026-05-05 01:30 49.98542 8.28250 3939 ft 201 kts 70°
2026-05-05 01:31 49.99031 8.30275 3989 ft 201 kts 70°
2026-05-05 01:31 49.99537 8.32373 3571 ft 214 kts 70°
2026-05-05 01:31 50.00061 8.34545 3094 ft 215 kts 70°
2026-05-05 01:31 50.00570 8.36656 2912 ft 200 kts 70°
2026-05-05 01:32 50.01050 8.38647 2468 ft 196 kts 69°
2026-05-05 01:32 50.01510 8.40557 2034 ft 184 kts 69°
2026-05-05 01:32 50.01953 8.42399 1536 ft 179 kts 69°
2026-05-05 01:32 50.02378 8.44169 1037 ft 171 kts 69°
2026-05-05 01:33 50.02759 8.45818 833 ft 154 kts 69°
2026-05-05 01:33 50.03131 8.47343 714 ft 152 kts 67°
2026-05-05 01:33 50.03509 8.48902 466 ft 154 kts 68°
2026-05-05 01:33 50.03879 8.50428 336 ft 146 kts 69°
2026-05-05 01:34 50.04206 8.51781 334 ft 120 kts 71°
2026-05-05 01:34 50.04391 8.52585 352 ft 30 kts 76°
2026-05-05 01:34 50.04387 8.52854 349 ft 18 kts 100°
2026-05-05 01:34 50.04367 8.53044 358 ft 17 kts 101°
2026-05-05 01:35 50.04349 8.53227 360 ft 17 kts 93°
2026-05-05 01:35 50.04379 8.53396 372 ft 16 kts 68°
2026-05-05 01:35 50.04399 8.53565 374 ft 16 kts 85°
2026-05-05 01:35 50.04407 8.53729 374 ft 15 kts 84°
2026-05-05 01:36 50.04420 8.53886 374 ft 14 kts 84°
2026-05-05 01:36 50.04429 8.54037 374 ft 14 kts 84°
2026-05-05 01:36 50.04439 8.54181 374 ft 13 kts 85°
2026-05-05 01:36 50.04448 8.54321 373 ft 13 kts 85°
2026-05-05 01:37 50.04451 8.54481 368 ft 16 kts 96°
2026-05-05 01:37 50.04403 8.54656 364 ft 19 kts 127°
2026-05-05 01:37 50.04288 8.54786 355 ft 22 kts 160°
2026-05-05 01:37 50.04137 8.54872 351 ft 23 kts 160°
2026-05-05 01:38 50.04021 8.55007 355 ft 22 kts 88°
2026-05-05 01:38 50.04071 8.55231 357 ft 22 kts 66°
2026-05-05 01:38 50.04120 8.55448 352 ft 21 kts 70°
2026-05-05 01:38 50.04174 8.55662 354 ft 22 kts 71°
2026-05-05 01:39 50.04225 8.55878 355 ft 21 kts 70°
2026-05-05 01:39 50.04293 8.56064 354 ft 20 kts 11°
2026-05-05 01:39 50.04420 8.56040 358 ft 17 kts 28°
2026-05-05 01:39 50.04472 8.56200 361 ft 17 kts 70°
2026-05-05 01:40 50.04511 8.56364 355 ft 14 kts 69°
2026-05-05 01:40 50.04571 8.56457 357 ft 13 kts 20°
2026-05-05 01:40 50.04616 8.56493 361 ft 5 kts 44°
2026-05-05 01:40 50.04608 8.56539 358 ft 5 kts 134°
2026-05-05 01:41 50.04591 8.56584 358 ft 5 kts 114°
2026-05-05 01:41 50.04584 8.56609 360 ft 1 kts 115°
2026-05-05 01:41 50.04582 8.56615 361 ft 1 kts 115°
2026-05-05 01:41 50.04582 8.56616 361 ft 0 kts 115°